GFSNIL_850_spd_000.txt.gz
Wind_Speed
24 21 17 16 16 15 15 12 11 9 10 10 9 9 10 8 8 8 6 7 9 11
26 22 19 17 17 17 15 14 11 12 11 11 10 12 13 12 11 10 11 12 13 14
31 25 20 19 19 17 15 15 15 15 13 13 12 12 13 14 12 12 13 15 16 17
36 32 26 23 21 20 17 17 17 16 15 15 13 12 12 11 11 13 13 14 17 16
41 37 33 28 24 20 19 17 17 16 16 16 15 12 11 10 9 10 11 12 14 16
46 42 38 32 26 20 20 19 17 18 17 15 13 11 10 9 9 11 13 14 16 16
48 48 43 33 28 20 20 20 19 18 16 15 13 12 11 12 13 14 16 17 17 17
51 51 45 32 30 21 21 22 20 19 18 16 16 14 12 13 15 17 18 18 18 18
48 50 44 27 32 27 25 23 23 24 21 19 18 13 13 14 17 18 20 21 21 21
44 44 39 26 23 37 26 25 26 27 24 23 19 14 16 18 21 22 22 22 23 25
37 38 37 28 30 33 32 29 27 25 24 25 21 18 20 22 24 24 24 25 25 25
31 29 37 26 32 32 38 31 27 24 23 24 24 22 22 24 26 25 24 23 24 25
24 27 26 26 29 35 37 36 32 24 19 17 25 26 28 25 24 24 20 20 23 23
19 27 27 26 28 32 31 32 26 24 26 30 35 27 30 24 22 21 19 21 20 22

GFSNIL_850_spd_003.txt.gz
Wind_Speed
29 27 24 23 20 18 18 15 13 13 12 12 11 9 8 6 7 8 7 8 9 8
32 31 30 26 23 20 19 18 16 15 12 12 12 11 11 11 11 11 11 13 13 11
35 33 30 26 24 21 19 19 18 16 15 14 12 12 14 13 14 13 12 13 15 15
39 35 31 29 24 21 22 18 20 18 16 16 14 13 13 13 14 13 13 12 11 12
44 39 33 34 28 19 19 21 19 19 18 17 16 15 14 14 14 15 12 10 10 11
48 45 41 42 31 17 14 16 21 22 21 19 18 17 16 14 15 14 13 12 13 15
49 47 45 41 28 26 17 14 24 24 23 21 19 18 16 15 16 15 16 16 16 18
43 43 44 42 41 33 36 36 28 27 26 23 21 19 18 17 18 18 18 18 18 20
37 41 40 40 42 45 26 13 43 35 31 26 25 20 18 19 21 21 21 20 19 21
31 32 34 35 36 42 34 25 46 40 35 32 27 22 20 22 23 23 22 23 24 26
23 25 26 28 34 42 33 29 36 38 35 31 28 24 21 22 22 25 26 24 28 27
17 18 22 26 31 37 29 28 36 37 30 26 25 26 23 25 25 29 27 28 27 24
12 15 15 23 30 36 27 30 34 34 25 22 21 23 28 29 35 38 25 26 25 21
13 14 16 25 32 34 25 29 34 32 29 22 18 22 22 29 27 25 21 25 21 23

GFSNIL_850_spd_006.txt.gz
Wind_Speed
27 23 21 19 17 16 14 13 12 12 13 10 10 9 8 7 6 7 6 6 6 7
30 28 22 20 18 17 15 13 14 13 13 10 11 11 10 9 9 9 8 9 9 10
31 30 27 23 25 23 18 16 15 15 14 12 11 12 12 11 11 11 10 9 10 11
31 29 30 29 28 22 20 17 16 15 16 13 13 14 15 14 13 12 11 11 12 11
32 32 32 32 32 29 26 20 15 11 14 16 15 15 17 16 13 13 13 13 13 11
35 37 32 34 34 33 28 21 20 27 28 21 24 21 20 19 17 15 14 14 13 13
33 29 32 34 40 35 33 30 31 37 33 35 28 28 23 20 19 18 16 16 15 15
25 25 27 34 41 40 41 41 41 40 45 37 32 29 26 23 20 19 18 17 17 17
23 25 29 36 37 40 46 49 49 46 41 35 33 28 27 25 20 19 17 16 17 19
25 26 27 28 30 35 42 49 48 45 37 28 36 30 27 24 23 19 17 18 20 21
22 22 22 23 24 26 32 42 45 38 35 25 32 32 31 26 26 26 22 24 23 25
19 19 20 21 22 23 26 33 31 31 27 23 26 28 27 28 27 25 30 26 30 34
15 17 18 17 19 20 23 24 25 24 22 22 23 21 24 25 28 30 27 27 30 28
15 17 17 17 17 19 21 21 24 22 21 25 22 23 21 18 22 24 26 23 19 14

GFSNIL_850_spd_009.txt.gz
Wind_Speed
27 24 23 23 17 16 13 12 15 16 14 12 10 8 8 6 5 6 6 6 6 6
29 28 25 23 22 18 18 17 18 16 15 13 11 10 10 7 10 10 9 9 10 8
30 30 30 27 26 23 23 24 20 21 17 16 15 13 11 11 10 11 10 9 10 12
31 30 30 33 32 31 29 25 24 26 20 19 17 12 9 12 14 11 11 12 14 13
35 33 33 33 34 33 35 32 30 28 25 25 17 14 12 11 14 14 14 16 15 14
36 38 37 35 34 36 34 35 32 31 30 27 22 20 15 16 17 16 17 17 17 15
39 39 37 37 38 37 38 37 37 34 34 32 27 24 17 17 19 19 18 19 18 17
37 35 35 36 40 37 38 39 40 38 38 38 34 25 21 20 22 21 19 18 17 17
35 34 36 38 37 38 38 36 40 42 41 41 35 24 23 25 21 19 22 19 17 17
32 35 36 36 36 39 37 34 41 46 44 42 33 26 26 25 21 18 18 20 20 20
34 32 32 32 34 34 29 31 39 43 43 27 25 26 26 27 23 23 24 23 22 22
30 28 26 29 28 28 26 29 30 33 37 29 23 22 22 26 25 24 24 24 22 21
26 25 24 22 24 22 21 23 19 21 21 21 20 20 23 23 21 22 23 24 26 23
22 22 19 19 18 18 18 18 19 20 19 19 19 16 18 18 17 17 19 22 22 23

GFSNIL_850_spd_012.txt.gz
Wind_Speed
34 31 30 25 22 23 20 18 22 18 18 14 12 15 13 11 11 8 5 10 13 10
32 37 29 33 27 24 25 19 24 23 22 19 18 13 14 11 9 12 9 9 7 6
35 34 38 31 31 30 22 24 23 27 26 22 19 19 17 13 17 12 10 10 9 10
39 37 36 36 34 33 31 28 28 27 28 23 22 21 19 18 15 15 12 10 16 16
39 39 39 40 39 37 34 35 34 36 32 29 26 25 22 20 23 22 17 14 13 17
41 41 41 42 41 40 38 40 40 39 38 35 33 32 26 21 20 21 20 19 15 14
44 44 42 42 41 39 42 42 42 43 41 37 37 35 30 25 22 20 21 21 18 16
44 43 43 41 42 42 40 42 40 41 40 38 38 37 33 29 25 21 21 21 19 18
42 42 42 42 40 38 38 35 36 38 38 40 40 37 34 28 24 22 24 23 22 21
42 44 42 39 37 37 36 34 38 37 37 38 37 32 27 25 23 23 25 22 23 19
43 43 41 38 36 36 37 39 38 36 35 37 36 32 35 30 26 28 25 24 22 19
38 40 39 36 35 36 37 34 33 30 31 34 30 28 33 31 31 28 31 29 24 24
35 32 35 34 32 30 27 28 26 24 25 26 23 26 23 19 21 27 29 26 24 24
31 32 29 28 26 23 21 18 19 19 16 15 15 19 19 19 20 23 24 21 25 27

GFSNIL_850_spd_015.txt.gz
Wind_Speed
37 32 30 30 19 27 25 21 18 19 15 15 14 14 14 11 10 12 13 15 19 20
37 40 33 35 29 24 23 21 19 19 19 17 15 16 16 13 13 12 12 13 18 22
38 40 39 35 37 30 28 28 23 25 23 22 20 18 19 17 15 14 13 13 13 18
37 40 38 39 38 39 31 32 32 29 27 27 25 22 23 20 18 18 18 18 16 16
36 39 40 39 43 37 41 36 30 32 32 30 29 26 27 24 23 20 20 20 19 20
39 39 42 42 41 43 41 41 40 38 37 38 35 32 30 27 25 24 23 22 22 20
43 41 42 41 41 43 42 41 42 42 41 40 39 37 34 30 28 26 27 26 25 23
44 43 42 43 42 41 44 45 41 41 42 42 40 38 36 33 30 31 27 24 25 26
44 44 44 45 43 41 40 41 44 41 40 41 39 38 38 37 32 32 28 23 24 26
43 43 44 44 43 41 39 36 35 34 35 36 36 33 35 36 31 31 29 25 24 27
44 42 41 41 42 38 36 35 33 32 33 33 34 36 34 30 28 28 26 25 27 29
45 45 45 43 40 37 36 34 33 32 28 30 33 32 30 27 28 31 30 26 30 28
47 48 48 44 39 38 34 29 26 28 28 28 26 24 22 21 25 26 28 26 28 28
44 47 44 40 39 35 27 24 27 26 25 22 18 18 16 13 17 19 21 21 21 27

GFSNIL_850_spd_018.txt.gz
Wind_Speed
33 32 33 32 31 29 26 26 25 25 19 15 16 15 15 12 13 12 17 19 20 18
35 33 36 32 34 33 29 28 28 24 18 17 16 16 16 15 14 11 13 17 19 21
37 35 35 34 33 36 30 26 28 25 21 19 19 18 16 16 17 14 13 14 17 18
39 37 36 37 35 38 35 29 32 29 26 24 23 23 21 19 19 19 15 16 17 15
39 37 38 38 39 39 40 36 33 32 31 29 27 26 25 23 22 23 20 18 18 17
43 40 39 39 39 41 42 43 40 37 37 35 32 30 29 27 24 24 24 21 21 19
45 42 40 38 41 41 43 45 44 45 41 38 34 34 33 31 29 27 27 26 24 23
45 41 41 41 40 42 42 44 45 42 42 41 39 38 36 35 34 33 30 29 27 26
47 45 44 44 42 41 42 42 43 44 42 41 41 39 37 36 37 38 32 29 29 27
49 47 46 45 44 42 40 38 38 41 41 39 39 38 35 35 36 37 32 27 31 29
51 48 46 45 44 41 38 36 33 31 31 31 33 33 30 32 33 31 29 23 28 30
52 48 46 45 43 38 34 33 30 27 28 27 29 30 31 33 34 27 24 18 23 25
54 49 45 43 41 34 31 27 27 30 26 26 22 26 27 30 19 19 18 20 25 27
56 51 44 42 39 36 31 29 28 29 25 23 23 22 19 18 18 16 17 20 22 24

GFSNIL_850_spd_021.txt.gz
Wind_Speed
40 38 32 31 31 29 32 28 25 24 23 19 16 16 14 12 14 13 14 16 16 15
43 41 36 30 30 30 34 31 27 25 24 22 19 18 17 14 15 14 13 14 17 18
45 43 39 31 30 32 35 35 31 28 26 25 21 19 19 16 17 18 14 14 17 19
48 45 43 36 32 35 36 37 33 30 28 27 24 22 22 19 18 20 19 16 17 16
48 47 46 41 36 37 38 38 37 31 30 29 28 25 24 23 22 21 21 21 19 19
52 49 48 44 39 38 41 40 40 38 33 34 32 29 27 26 26 25 22 22 23 20
55 47 48 46 41 41 41 43 42 41 40 35 33 31 29 29 29 28 28 27 25 24
55 48 46 49 45 42 42 43 43 43 41 40 36 34 33 32 32 31 32 33 28 25
55 51 49 50 48 45 44 43 44 44 44 43 40 40 38 37 36 33 34 35 30 27
56 53 52 51 50 48 47 44 43 43 42 42 41 39 37 36 35 33 33 31 28 27
55 54 53 53 52 50 49 47 43 41 41 38 37 36 34 31 33 32 27 24 24 23
55 56 54 54 53 53 51 47 44 39 35 33 33 28 25 28 33 32 27 25 19 18
55 56 56 53 52 52 51 47 42 34 31 29 25 17 19 19 25 28 26 19 19 20
54 55 55 54 52 50 49 42 36 33 30 25 20 20 20 22 23 26 16 16 15 16

GFSNIL_850_spd_024.txt.gz
Wind_Speed
46 44 39 34 30 28 29 30 26 25 24 22 19 15 13 13 12 13 11 10 14 13
46 46 43 39 33 29 29 29 30 28 25 23 20 18 17 16 15 15 12 11 14 16
46 44 43 40 36 31 31 31 31 31 28 26 22 21 20 18 17 17 15 13 13 15
51 48 46 43 37 35 31 33 33 33 32 28 25 23 22 21 19 17 17 17 16 15
51 51 49 46 40 37 35 33 34 33 35 32 28 26 25 23 22 21 19 18 20 19
54 53 51 47 43 40 38 35 35 35 37 35 31 30 27 25 24 23 22 21 20 19
54 53 51 47 45 43 40 39 37 39 39 39 34 32 30 28 28 26 25 25 24 21
54 52 48 49 45 43 42 42 40 40 42 41 40 36 33 31 30 27 26 27 28 28
51 51 49 49 47 44 42 43 42 42 44 44 43 41 38 32 30 27 28 28 29 30
48 49 49 49 49 48 44 44 45 44 44 46 46 43 38 35 34 31 30 29 28 30
49 47 47 49 50 50 48 46 47 46 44 43 44 42 38 37 35 32 30 28 26 23
49 48 46 48 49 52 52 49 49 48 46 43 42 41 38 36 37 35 31 26 25 25
50 49 48 46 46 49 52 51 50 49 48 43 41 38 37 35 36 36 32 30 26 22
48 48 47 43 43 46 48 50 51 49 48 43 42 38 35 35 38 36 33 29 24 21

GFSNIL_850_spd_027.txt.gz
Wind_Speed
43 41 38 35 31 27 26 24 24 25 23 21 18 16 14 13 12 11 11 11 11 13
46 46 45 40 34 31 28 26 25 26 24 23 20 19 17 16 14 13 13 13 13 14
46 45 45 43 39 35 31 28 28 28 28 26 24 22 21 20 18 17 16 16 15 14
47 47 46 47 41 36 34 32 31 31 30 31 28 25 25 24 21 21 20 20 19 16
46 47 47 46 43 38 37 36 34 33 34 33 33 30 29 28 26 24 23 20 21 19
51 51 51 48 45 42 39 38 36 35 36 36 36 36 33 30 29 27 25 24 22 19
54 54 53 50 48 46 43 41 39 38 36 37 37 38 37 34 33 31 29 27 26 25
47 49 51 51 50 49 47 44 41 40 40 38 39 40 40 38 36 36 33 31 30 30
44 45 47 47 47 46 48 47 45 45 43 42 42 44 44 41 39 39 37 36 33 32
45 45 44 45 46 45 47 47 48 47 47 46 45 46 45 42 43 41 39 37 35 34
47 45 45 46 47 46 47 49 50 49 49 48 47 47 46 44 43 45 42 40 38 37
45 47 47 48 48 48 48 50 52 51 50 50 50 49 46 43 44 47 46 42 40 38
42 43 44 48 48 48 50 51 52 53 51 50 49 50 45 41 42 48 47 43 43 36
41 42 41 40 40 43 45 47 50 55 53 51 50 48 45 42 41 47 46 44 43 36

GFSNIL_850_spd_030.txt.gz
Wind_Speed
39 35 31 28 24 21 20 19 20 23 25 23 20 18 16 15 13 13 13 12 11 9
42 41 34 32 31 27 23 20 20 21 24 24 23 21 19 16 17 17 15 15 14 13
46 44 43 42 39 34 29 28 22 23 23 25 25 24 23 20 21 21 19 17 18 16
48 47 45 46 45 42 39 36 31 30 26 27 27 28 27 24 22 24 23 23 22 20
49 47 45 47 46 44 42 41 38 35 32 31 29 30 32 30 26 28 27 26 26 24
48 48 49 48 45 44 42 41 40 40 39 35 35 34 35 34 33 32 30 28 27 25
52 51 49 48 46 46 46 45 43 42 41 39 36 37 37 38 38 36 34 32 30 28
53 54 53 53 51 48 48 46 45 44 43 42 41 37 42 42 42 41 38 35 34 33
46 48 51 53 53 52 50 49 47 49 48 47 45 43 42 43 44 45 44 41 36 34
45 44 44 47 48 50 52 51 51 50 52 53 51 49 46 45 45 47 47 44 38 34
46 45 42 42 44 45 47 50 51 52 53 55 54 52 49 47 44 45 46 44 41 41
43 40 36 42 43 43 40 41 40 39 44 53 56 54 51 49 47 47 49 50 45 41
37 39 39 40 39 37 34 34 33 37 40 43 50 51 53 51 49 48 48 45 48 48
34 36 37 38 37 37 37 33 37 38 40 42 44 51 53 54 54 53 45 44 39 37

GFSNIL_850_spd_033.txt.gz
Wind_Speed
40 30 30 28 23 23 20 20 19 24 22 22 18 19 18 14 12 12 12 12 13 9
42 41 33 31 29 24 24 20 22 22 21 23 23 21 20 17 18 16 15 14 13 15
45 43 42 36 35 30 27 25 21 26 24 23 25 25 24 19 18 20 17 15 17 16
48 46 44 45 42 38 33 32 30 26 27 26 27 27 27 25 21 24 22 20 20 21
49 48 48 48 47 45 43 40 38 34 34 29 27 29 30 29 25 26 23 23 24 25
53 53 53 51 47 47 45 44 42 40 40 38 33 33 34 33 33 30 30 28 27 27
51 56 55 52 51 46 45 44 44 43 42 42 40 38 38 39 38 37 35 34 32 30
49 49 49 49 51 48 48 47 44 44 45 45 44 41 44 42 43 41 41 37 37 33
45 45 47 47 49 49 47 48 48 49 48 48 46 43 43 43 43 43 42 41 39 39
44 45 46 46 47 53 54 51 52 51 50 50 51 50 47 45 44 43 45 44 43 41
48 46 44 45 47 48 48 51 52 52 52 52 54 52 51 50 48 49 47 45 45 43
44 44 44 50 49 48 46 47 50 50 51 54 56 55 53 52 53 54 53 50 44 43
42 43 47 47 46 45 44 45 41 44 48 52 54 56 57 55 55 56 57 56 51 47
41 44 45 43 41 41 41 38 40 42 44 46 50 54 58 59 59 61 59 56 52 56

GFSNIL_850_spd_036.txt.gz
Wind_Speed
40 36 33 31 27 28 25 23 23 22 21 18 18 20 18 18 13 13 14 15 16 14
41 41 36 35 32 26 27 23 24 23 24 22 20 22 23 21 18 14 15 15 16 16
44 44 42 35 34 34 26 28 21 27 26 24 21 25 23 25 23 20 22 19 18 19
46 44 44 43 37 36 33 26 28 21 28 27 24 25 29 28 24 24 25 25 23 22
46 46 44 44 45 40 38 36 33 32 28 32 28 26 30 33 31 28 30 29 28 27
48 48 47 46 45 46 43 41 38 38 39 37 35 31 29 32 33 34 34 34 30 29
46 49 48 47 47 46 47 46 45 44 44 43 41 39 35 32 33 33 35 34 36 33
44 46 47 47 48 48 48 49 48 47 45 44 43 43 40 38 38 38 37 38 37 39
44 44 47 47 48 49 50 49 48 48 47 47 48 46 43 41 40 41 41 41 40 43
47 47 47 48 48 49 50 50 50 49 49 50 50 49 46 43 43 44 44 44 44 43
46 48 49 49 50 51 50 52 52 50 50 50 52 52 51 48 47 49 49 48 47 46
44 46 48 51 52 49 49 51 52 52 52 54 54 54 54 52 51 53 55 55 53 52
45 48 51 50 50 48 49 49 48 51 53 55 56 57 58 56 53 55 59 59 59 58
40 45 48 46 43 45 45 43 44 45 46 49 51 53 54 55 54 60 60 61 57 61

GFSNIL_850_spd_039.txt.gz
Wind_Speed
40 35 33 31 29 29 28 26 21 21 18 17 17 18 19 16 13 13 16 19 18 17
43 40 37 34 32 28 27 25 22 19 20 17 15 17 21 21 18 17 15 17 20 19
43 44 42 36 35 31 27 29 24 23 23 22 20 20 20 24 24 22 19 18 17 20
43 44 44 41 35 37 32 28 31 26 24 28 26 24 22 25 26 26 23 22 21 19
42 43 44 44 39 37 36 35 31 34 33 25 28 27 22 21 26 28 28 28 26 24
41 44 43 44 43 41 39 38 38 33 32 33 28 29 28 24 25 27 31 30 29 28
41 42 43 42 41 42 43 42 41 40 38 35 36 34 32 31 29 26 28 34 35 34
43 40 40 42 43 41 43 45 43 43 43 43 43 42 41 40 38 36 33 32 37 39
40 40 41 42 42 44 44 44 45 47 47 47 48 48 47 44 43 41 40 39 38 39
41 41 40 38 41 44 44 44 45 46 47 49 50 49 49 47 46 44 44 43 41 41
47 45 41 40 41 42 43 45 45 46 46 46 47 47 48 48 47 48 47 47 45 45
49 47 46 46 45 44 43 44 46 47 47 48 49 47 45 44 46 50 53 53 52 51
44 47 48 48 47 46 46 45 44 45 47 49 50 50 48 46 46 49 53 54 57 58
42 43 44 44 45 47 48 47 46 46 46 47 47 46 46 45 45 50 51 53 56 56

GFSNIL_850_spd_042.txt.gz
Wind_Speed
38 35 34 33 31 30 27 24 21 21 19 16 18 18 18 17 14 16 17 17 15 15
38 38 37 35 34 32 31 26 23 23 22 20 18 20 18 20 17 16 16 20 19 18
39 39 39 36 34 33 31 29 26 24 23 20 19 19 19 18 19 20 19 18 22 22
42 41 43 41 37 33 32 31 30 27 23 24 22 22 23 21 19 23 23 23 22 22
42 40 42 44 41 37 35 34 31 31 30 22 24 26 27 26 24 24 26 28 27 26
41 40 40 42 43 41 38 37 36 31 34 35 34 27 29 30 27 24 26 28 31 31
40 39 37 37 41 42 40 39 40 39 38 36 37 36 31 29 29 27 25 26 28 31
38 37 36 35 37 39 40 40 41 41 41 42 39 37 35 35 33 32 30 29 29 30
38 39 38 36 34 35 38 39 40 44 44 45 45 45 43 40 38 38 38 37 36 36
38 39 38 37 37 37 36 36 40 41 43 46 47 46 46 45 45 45 44 44 42 42
39 37 35 37 36 36 36 37 38 39 42 43 45 45 45 45 46 48 48 47 45 45
39 38 36 37 36 32 33 35 36 36 38 41 42 40 40 39 41 45 47 47 47 47
41 41 41 37 36 34 35 36 35 37 37 37 38 36 36 35 36 41 42 44 47 49
43 43 41 39 39 39 39 40 40 40 40 40 39 38 36 34 35 38 38 41 44 45

GFSNIL_850_spd_045.txt.gz
Wind_Speed
41 35 31 31 32 31 30 26 20 19 18 16 16 15 15 15 14 14 15 15 16 16
45 39 34 33 31 32 29 26 23 20 20 18 17 17 17 17 17 16 17 16 18 18
47 41 35 35 35 33 31 29 26 24 22 21 19 19 19 19 18 19 17 16 20 22
49 43 38 36 36 34 33 32 29 28 25 23 21 20 21 20 19 21 21 20 22 23
48 45 42 37 35 34 34 33 33 29 27 25 24 24 24 24 24 23 23 23 25 26
51 48 44 39 35 34 35 35 33 32 31 30 29 26 27 27 28 27 26 24 25 28
50 49 43 37 35 34 34 36 36 36 36 33 32 32 30 27 27 30 30 28 25 25
46 44 40 37 35 34 34 35 38 38 39 39 37 34 35 35 34 30 29 28 28 27
44 41 39 36 36 34 33 34 36 40 42 41 43 41 39 36 35 34 34 34 32 32
44 43 39 35 36 36 35 33 36 37 40 43 43 42 41 40 40 40 39 39 38 39
44 42 39 38 38 36 36 35 34 35 38 40 41 41 42 41 42 44 45 45 44 45
41 39 38 37 35 33 34 34 34 34 35 37 37 37 36 37 40 44 45 45 45 44
35 34 35 33 30 28 30 29 28 29 29 29 30 29 28 30 33 37 39 39 41 42
33 33 33 32 32 30 30 30 31 31 31 31 31 29 27 26 28 31 32 34 36 37

GFSNIL_850_spd_051.txt.gz
Wind_Speed
38 36 34 32 29 25 26 28 25 22 20 17 14 12 12 11 11 11 12 12 13 12
41 38 36 35 31 28 24 22 25 23 20 20 17 15 12 13 12 12 12 12 14 13
44 41 35 33 33 31 25 20 20 21 21 20 20 18 16 15 14 14 14 14 14 14
45 43 39 36 32 31 29 24 22 22 24 23 22 21 20 18 17 17 16 17 17 15
44 43 42 39 35 32 31 28 25 25 26 25 26 24 23 21 21 21 19 18 19 19
45 44 43 40 38 34 32 32 29 29 29 29 29 27 26 24 23 23 21 19 20 19
48 44 42 40 38 35 34 33 33 31 31 31 31 30 29 28 27 26 24 23 23 23
43 42 41 40 37 33 32 33 34 33 33 32 33 32 32 31 30 30 29 28 27 27
40 40 41 40 39 36 33 33 34 36 35 34 35 34 33 32 33 32 32 31 30 29
39 40 39 38 39 38 36 34 35 36 37 37 36 36 35 34 35 35 35 35 34 33
39 38 37 38 38 37 36 36 36 36 37 38 38 37 36 36 37 39 39 38 37 37
36 34 34 35 35 34 35 36 36 36 37 38 37 36 35 36 39 42 43 42 41 41
37 35 34 31 30 30 31 32 32 34 35 36 35 33 32 32 36 40 41 41 42 42
34 32 31 31 31 33 33 33 34 34 35 35 34 33 32 32 34 37 37 37 38 37

GFSNIL_850_spd_054.txt.gz
Wind_Speed
37 30 28 24 19 18 17 15 15 15 15 13 12 11 10 8 7 8 8 10 11 8
39 37 28 27 24 22 19 16 16 17 17 16 16 16 13 10 10 10 10 9 12 11
41 40 38 31 31 25 21 21 19 17 18 18 17 18 17 13 12 11 10 10 11 11
39 41 41 37 36 32 28 26 22 20 19 19 18 19 21 18 15 14 13 13 14 13
47 44 37 41 39 35 31 28 27 24 22 22 21 19 23 23 18 17 16 15 16 16
44 43 41 42 40 37 33 31 28 29 27 25 22 21 23 24 23 20 19 18 18 18
47 46 43 44 42 39 36 33 31 31 30 28 26 24 23 24 25 23 21 21 20 20
48 47 46 45 43 40 38 35 34 33 32 32 28 26 27 26 24 25 25 23 23 23
47 48 47 45 43 41 39 37 35 36 35 35 30 28 31 29 25 26 27 27 27 28
49 49 48 46 43 42 40 38 38 38 37 37 36 33 33 32 32 27 27 29 29 27
46 46 45 44 44 43 41 40 39 38 39 38 38 36 35 33 33 35 35 32 30 31
46 46 45 46 45 43 41 40 40 39 39 40 39 38 36 34 35 38 40 40 40 38
42 44 45 43 43 41 40 40 37 37 39 39 39 38 37 35 36 35 37 39 42 42
41 41 39 37 36 37 37 35 37 35 36 37 38 37 36 36 37 35 31 31 30 29

GFSNIL_850_spd_057.txt.gz
Wind_Speed
38 27 26 24 19 19 16 15 14 14 14 12 11 9 9 7 6 8 9 10 13 7
41 37 28 27 26 20 20 16 17 14 13 15 13 12 12 9 9 8 9 10 11 11
43 41 36 31 28 25 21 23 14 18 17 16 17 16 16 12 13 12 11 9 12 11
41 39 41 36 36 31 27 22 25 20 18 18 18 18 19 17 13 14 14 14 12 12
43 39 38 44 38 33 33 29 27 24 22 19 19 19 20 19 17 17 15 15 15 15
43 44 42 40 43 39 36 33 28 27 26 23 21 23 22 21 20 20 20 19 18 18
46 46 43 42 41 42 40 37 34 31 29 27 24 24 24 23 23 22 22 21 20 20
49 47 44 44 43 44 41 40 37 34 32 30 26 24 26 26 25 24 24 23 22 22
43 45 47 46 47 44 43 42 40 38 36 34 29 27 28 27 26 27 26 26 25 24
43 46 48 47 46 47 45 43 43 40 39 38 37 32 31 30 31 26 28 28 26 24
43 45 46 46 48 47 45 44 44 43 42 41 40 37 35 34 33 32 32 28 27 28
48 44 45 48 49 48 46 46 45 44 43 43 42 38 36 35 35 34 35 34 34 34
46 45 46 47 47 49 48 47 43 44 44 43 42 40 39 36 35 31 33 34 36 37
45 45 43 41 41 43 47 37 44 38 41 43 41 41 39 38 38 33 29 29 29 29

GFSNIL_850_spd_063.txt.gz
Wind_Speed
37 35 30 20 20 18 14 16 13 9 10 9 9 10 8 10 12 14 15 14 11 8
37 38 36 30 25 21 18 15 19 16 13 12 9 12 10 8 11 13 15 17 17 14
43 39 39 35 30 29 26 24 15 23 21 16 11 14 12 10 12 11 10 11 17 19
48 44 39 40 36 31 32 29 22 18 23 18 14 14 14 13 13 10 9 10 11 14
47 48 45 42 41 38 34 31 28 24 21 21 18 16 19 17 16 18 15 15 14 16
45 48 50 47 44 43 38 36 32 24 27 25 24 20 19 19 18 22 21 17 17 19
47 46 47 48 47 45 43 40 39 37 34 33 33 29 23 21 20 19 25 22 20 19
46 44 43 44 46 46 47 44 41 41 41 38 34 31 28 26 24 22 22 25 26 24
45 43 43 43 43 42 44 48 45 44 43 42 40 35 31 28 28 26 24 23 23 25
46 44 42 43 42 42 41 42 48 45 44 44 43 40 34 30 29 28 27 26 24 23
48 45 43 41 44 42 41 41 43 47 46 45 44 41 37 33 30 29 27 26 25 24
50 47 46 44 42 42 41 42 41 42 44 44 42 40 38 35 34 34 33 31 30 29
49 49 48 46 44 42 42 42 41 42 42 42 42 40 38 37 37 37 38 37 36 35
49 50 49 47 46 45 44 42 44 43 43 43 40 38 37 36 38 39 39 40 39 37

GFSNIL_850_spd_066.txt.gz
Wind_Speed
36 32 27 25 26 23 20 17 13 13 14 12 12 13 14 13 14 17 16 13 11 8
39 37 35 27 24 26 22 18 19 16 15 14 9 10 11 13 13 16 18 17 14 13
40 40 39 34 27 28 23 20 17 19 18 18 14 12 12 14 14 16 16 19 20 18
42 42 43 40 36 29 28 24 23 20 19 23 20 15 15 15 15 16 16 15 16 19
41 44 44 45 43 36 32 30 29 27 22 23 24 19 16 16 17 17 17 15 14 16
42 44 47 46 46 43 38 34 33 33 30 24 25 23 18 16 17 18 19 17 17 15
44 43 44 47 47 46 45 42 38 35 35 31 29 27 23 19 17 19 21 22 21 19
47 43 42 42 47 49 49 47 45 43 39 35 33 31 30 27 24 21 21 23 25 24
47 46 44 43 43 45 50 51 50 49 45 42 40 36 33 30 28 25 24 24 24 25
44 44 43 43 43 44 45 47 52 53 51 48 46 45 41 37 33 30 29 27 26 26
44 45 42 41 42 42 43 43 47 49 53 52 50 47 45 42 39 36 33 31 28 26
39 44 45 45 43 41 41 41 42 45 46 49 50 48 46 44 43 41 39 35 32 30
27 44 49 50 47 43 42 41 38 41 44 45 45 45 43 41 42 42 41 39 37 35
35 40 49 52 52 49 45 44 42 40 39 41 43 43 42 41 41 41 41 42 42 38

GFSNIL_850_spd_069.txt.gz
Wind_Speed
32 33 30 26 23 23 21 17 13 13 15 12 11 13 13 13 16 18 17 13 11 7
32 36 33 29 23 23 21 18 17 16 16 15 12 12 14 14 15 17 18 17 15 12
31 35 35 31 28 24 23 22 19 19 17 15 15 14 14 14 13 15 18 20 19 16
30 34 36 36 34 30 22 23 21 20 19 19 18 17 16 15 15 16 16 17 20 20
32 29 34 38 38 36 31 25 25 23 23 21 18 22 21 18 17 17 17 17 18 18
39 36 32 36 39 40 37 33 29 28 28 25 22 21 24 21 18 19 18 19 19 18
43 39 35 31 37 41 42 41 37 33 31 29 27 26 23 22 21 18 19 20 21 22
45 41 36 35 32 37 42 43 43 40 38 34 31 30 30 28 26 24 21 20 21 22
44 46 42 38 37 35 36 41 45 46 45 43 40 36 32 32 32 30 28 26 24 24
40 43 40 37 39 39 39 38 40 46 48 48 47 45 40 38 36 35 33 31 29 28
37 41 39 37 38 36 38 40 40 41 43 48 51 50 47 44 42 42 42 38 36 34
35 39 38 36 35 34 35 35 38 38 40 43 47 49 50 48 47 47 47 44 42 40
27 31 32 30 30 33 36 37 36 36 35 37 42 44 46 45 48 50 49 48 47 43
21 19 20 20 25 32 36 41 39 40 38 34 33 37 41 43 43 45 47 47 46 45

GFSNIL_850_spd_072.txt.gz
Wind_Speed
29 27 28 26 21 18 17 14 11 10 12 12 11 11 12 12 12 15 14 12 11 7
27 28 29 28 24 21 19 16 15 15 11 11 11 9 10 12 11 12 14 14 14 11
26 29 27 29 28 26 21 19 17 17 16 13 14 12 10 10 12 12 13 15 16 14
30 28 29 31 31 28 23 21 19 17 16 16 15 14 13 10 11 13 12 13 16 17
33 30 30 32 33 32 29 25 20 20 18 18 17 17 18 16 14 13 14 13 15 16
40 35 33 32 33 33 32 30 27 24 23 21 20 19 18 18 19 17 15 15 15 16
44 42 37 34 32 33 34 34 33 31 27 26 24 23 22 20 20 19 17 15 17 17
41 42 43 42 38 34 33 36 37 36 34 32 30 28 26 24 22 21 20 18 17 17
33 39 40 42 42 40 38 35 37 40 39 39 39 36 31 28 26 25 25 26 23 22
31 33 33 35 39 41 40 39 38 36 39 42 42 41 39 36 34 32 30 29 28 26
28 29 28 28 33 36 37 39 40 39 37 37 40 43 44 42 41 40 38 35 33 32
29 34 34 32 31 32 32 33 33 37 37 37 38 38 39 42 46 46 45 42 40 38
24 31 33 31 31 31 29 29 28 30 31 31 31 33 35 38 40 44 47 47 47 44
17 22 26 28 30 28 28 25 25 27 28 29 29 28 29 31 36 39 41 44 45 45

GFSNIL_850_spd_075.txt.gz
Wind_Speed
24 27 26 21 18 16 14 13 9 7 9 9 8 10 10 10 10 9 11 10 7 6
24 26 27 25 22 20 16 15 13 10 8 7 9 8 8 10 9 8 9 12 11 9
28 25 25 25 24 24 21 18 16 14 12 11 10 11 9 8 9 9 10 11 12 13
31 28 27 26 24 25 23 22 19 17 15 14 12 11 11 9 9 8 9 10 11 14
37 31 29 26 25 25 27 25 22 20 18 17 15 16 15 14 14 12 9 10 12 12
41 39 34 31 26 26 28 30 27 25 22 20 18 18 17 15 14 15 14 11 13 12
36 40 39 36 32 29 28 31 32 30 28 24 22 22 20 19 17 15 16 15 13 14
28 31 35 39 38 35 32 30 32 34 33 32 30 28 27 24 21 20 17 18 16 14
25 29 32 33 34 36 37 36 34 34 36 37 37 36 32 29 27 25 24 23 22 20
26 29 29 29 32 34 33 33 36 37 37 37 39 39 40 36 34 32 30 27 25 24
27 28 27 28 30 30 30 31 31 35 36 37 38 37 39 40 39 40 38 36 34 32
22 26 28 30 29 30 30 29 29 31 34 36 37 37 36 35 38 43 44 43 40 39
18 24 22 25 29 31 32 30 28 29 31 32 34 35 36 36 37 40 41 42 44 44
8 17 19 23 26 27 27 28 28 30 30 30 31 32 33 32 34 37 38 40 41 42

GFSNIL_850_spd_078.txt.gz
Wind_Speed
21 17 16 14 12 12 10 9 9 7 8 8 11 10 9 8 6 9 8 8 7 5
25 21 16 16 14 13 12 10 11 9 9 10 10 9 9 7 9 10 8 9 11 7
27 24 21 19 18 15 14 13 12 13 12 10 10 11 9 8 8 8 8 8 11 10
26 26 24 21 19 20 17 16 16 16 15 13 12 12 13 11 9 8 9 10 11 11
29 26 23 25 21 19 19 18 17 17 16 14 14 15 14 12 11 11 10 9 11 11
24 25 29 26 24 22 20 20 20 19 19 17 16 17 17 16 15 15 14 13 12 12
21 24 27 32 29 27 24 22 22 24 21 19 19 18 19 18 19 16 15 14 15 14
18 19 21 27 32 32 30 28 25 24 26 26 22 21 20 20 20 20 19 17 16 16
16 17 19 23 28 28 29 31 31 30 28 27 26 26 27 26 21 21 20 20 19 19
18 17 18 19 21 27 30 28 30 32 32 32 32 30 32 33 32 26 24 23 22 22
9 16 19 22 22 22 22 25 29 31 33 34 34 34 33 32 34 37 37 33 29 27
13 13 13 18 23 23 21 22 24 26 30 32 35 35 35 34 35 36 40 41 42 40
9 13 15 17 17 23 24 24 23 23 25 28 33 35 36 36 36 31 33 36 40 43
15 12 13 22 20 22 22 22 23 24 25 26 28 32 33 33 35 38 33 33 33 32

GFSNIL_850_spd_081.txt.gz
Wind_Speed
15 12 13 12 11 9 7 9 10 6 7 9 9 7 9 7 4 8 7 9 10 6
18 16 14 14 12 11 9 8 7 7 8 8 8 9 10 7 8 9 7 8 10 13
19 18 18 15 16 13 12 11 13 10 10 9 10 9 9 9 10 10 8 7 13 11
19 19 18 17 16 16 15 14 12 9 12 12 10 11 12 12 7 6 9 13 8 11
20 19 18 18 17 16 16 15 17 15 17 15 14 13 14 12 11 11 10 10 11 11
18 21 22 21 19 18 17 17 16 16 18 16 15 15 15 17 15 14 13 12 12 12
17 20 19 21 22 19 20 19 18 20 20 19 18 17 17 18 19 18 16 15 15 15
12 15 18 19 23 23 22 22 22 20 21 23 21 19 19 20 19 19 17 17 17 16
8 12 15 16 18 24 27 26 26 25 25 24 23 23 25 24 21 21 22 23 21 20
17 13 13 15 19 18 23 23 27 29 27 29 30 26 28 31 31 28 26 25 23 22
9 13 20 14 17 21 23 22 24 29 31 33 32 32 31 32 33 33 35 34 30 29
9 11 15 15 13 16 22 24 26 27 29 31 34 34 33 33 35 35 38 38 39 39
12 10 10 15 18 17 15 21 25 27 29 30 31 33 34 36 36 31 33 35 38 40
12 15 15 13 17 21 20 20 20 25 25 29 32 31 32 34 34 32 32 34 33 33

GFSNIL_850_spd_084.txt.gz
Wind_Speed
17 16 12 8 10 4 6 6 12 7 5 9 8 11 12 7 6 7 9 13 12 9
15 12 13 11 12 13 7 4 7 6 6 6 10 8 8 7 7 6 8 8 10 12
18 15 18 16 15 11 6 6 6 10 12 5 6 8 9 7 6 8 9 5 7 10
18 18 18 22 19 20 18 8 8 10 14 9 9 11 9 9 9 11 9 13 11 12
21 17 17 17 19 16 14 20 21 10 12 15 14 13 13 9 9 11 7 6 11 11
21 23 21 20 17 18 16 13 17 18 19 21 19 15 16 13 10 14 14 12 13 10
22 21 23 23 21 19 19 17 15 16 18 20 17 16 15 15 16 15 17 16 15 15
18 17 17 18 22 21 20 21 20 19 18 22 21 18 19 19 19 19 17 19 18 18
16 7 15 18 17 20 23 21 22 22 22 21 23 21 20 22 20 22 21 21 19 22
7 11 10 11 16 17 19 26 25 24 25 26 26 25 24 25 27 28 25 24 25 25
8 8 11 16 16 15 17 19 20 28 29 28 32 30 28 28 30 31 34 34 31 28
5 6 10 14 17 20 20 21 23 23 25 29 33 32 30 29 30 34 37 38 38 37
9 8 6 8 12 15 19 18 23 23 26 28 31 32 31 30 33 35 36 37 39 40
10 9 9 12 10 11 14 19 22 23 21 22 27 30 33 32 30 31 34 37 38 36

GFSNIL_850_spd_087.txt.gz
Wind_Speed
22 15 14 14 8 9 8 11 10 7 9 9 12 12 10 8 10 11 13 12 10 8
22 19 15 11 11 8 7 7 5 11 7 10 9 8 8 9 7 7 7 11 14 14
22 20 17 20 14 13 12 12 8 13 8 9 9 7 8 8 9 9 7 6 10 15
22 20 19 20 20 16 16 11 11 7 12 10 11 4 4 9 11 10 10 9 10 9
20 18 20 23 21 22 23 18 17 12 10 16 12 10 13 11 10 12 8 6 11 14
19 19 18 20 22 22 21 21 23 21 19 18 15 16 16 15 12 15 13 11 9 8
24 23 22 19 17 17 18 19 18 18 19 21 20 18 18 18 14 14 15 16 17 16
17 16 19 23 21 20 21 18 17 17 18 18 18 17 16 17 18 18 16 16 19 19
18 20 17 20 20 21 19 20 20 20 19 19 22 20 18 14 14 17 18 18 18 19
9 19 25 18 20 21 21 23 21 20 22 23 22 21 23 22 24 24 25 25 25 23
3 5 9 15 15 11 13 17 21 24 27 25 24 24 25 22 24 29 27 26 28 28
6 3 2 5 8 13 14 16 17 20 20 21 24 25 26 25 25 27 28 32 34 34
5 5 5 4 5 5 9 12 17 18 22 21 23 24 24 25 24 26 28 32 33 33
3 3 2 5 7 8 7 6 7 9 13 18 16 20 20 22 23 27 30 30 30 28

GFSNIL_850_spd_090.txt.gz
Wind_Speed
22 20 15 14 14 14 10 11 10 8 6 8 11 12 14 12 12 12 11 11 8 6
23 23 19 14 14 11 10 7 14 12 14 10 10 14 11 11 10 12 12 13 14 12
25 23 21 18 16 13 11 11 9 8 11 9 13 11 11 9 11 11 9 10 13 14
27 23 20 21 21 17 15 15 15 14 11 11 9 9 9 10 12 10 9 8 9 11
24 22 22 22 25 22 18 17 15 13 10 13 13 11 10 9 10 13 10 6 7 10
22 23 25 24 24 24 23 23 21 20 17 13 15 14 14 12 12 13 13 12 10 7
25 27 27 24 22 24 25 23 21 20 20 20 18 17 17 18 17 15 15 14 14 13
28 27 27 26 25 23 22 22 21 19 18 17 18 18 17 18 18 18 17 16 15 15
17 13 15 23 26 25 22 22 22 23 21 19 19 19 18 18 18 17 15 16 14 14
20 11 11 18 14 13 17 21 21 23 23 22 22 20 20 21 22 22 22 23 24 24
9 13 14 18 16 15 18 23 23 23 24 25 23 20 21 22 23 25 27 29 28 27
10 6 5 12 18 22 23 23 20 17 18 17 17 19 20 23 26 26 26 26 28 29
10 8 6 5 3 0 2 3 7 9 10 13 18 21 22 22 24 25 27 26 28 28
6 6 5 4 2 2 3 2 1 4 1 3 7 11 15 15 14 16 22 24 26 27

GFSNIL_850_spd_096.txt.gz
Wind_Speed
20 15 11 9 6 5 8 4 4 4 3 5 6 7 6 8 10 10 10 8 7 6
22 19 14 11 8 7 6 8 5 6 6 6 5 7 10 10 10 11 10 10 10 10
20 20 16 14 11 9 9 8 9 7 9 9 10 9 9 11 10 10 9 9 10 10
20 21 19 16 13 11 9 9 9 7 7 7 7 7 9 10 11 10 8 8 9 9
19 21 21 18 14 15 15 15 13 12 11 9 7 8 6 7 9 9 9 8 9 7
18 18 21 22 20 18 17 15 16 16 14 10 8 7 9 10 9 10 10 10 10 9
14 14 15 17 17 16 15 14 13 15 14 14 13 13 13 14 14 13 14 13 13 11
8 7 11 13 14 16 16 16 15 16 17 16 16 15 14 15 16 16 15 16 14 13
11 6 4 2 8 13 15 16 17 17 17 17 18 17 15 15 15 15 16 16 15 15
19 20 15 14 9 7 6 10 12 16 17 15 18 19 19 19 17 17 17 18 18 17
15 19 19 19 22 20 11 12 13 11 12 13 13 15 19 19 18 18 19 19 20 21
10 11 13 15 18 25 23 20 17 15 14 13 13 15 20 19 18 16 19 19 19 21
4 4 3 1 3 5 8 9 12 12 12 14 14 12 14 13 13 14 10 14 16 18
3 2 1 0 0 1 1 4 9 9 8 8 10 10 12 4 9 10 10 11 14 16

GFSNIL_850_spd_099.txt.gz
Wind_Speed
17 12 8 7 8 4 6 6 4 4 5 4 5 5 6 9 10 8 7 6 6 5
19 18 12 9 8 5 4 8 5 4 4 4 4 4 6 9 9 10 9 9 9 9
18 17 17 13 11 8 5 5 8 7 5 9 7 8 7 7 9 9 10 10 10 10
19 17 17 16 11 9 8 7 4 4 5 4 5 8 7 8 10 11 10 9 8 8
21 18 18 19 15 12 11 9 8 8 8 6 6 6 6 6 8 9 9 9 9 8
22 21 19 19 20 17 14 12 11 11 11 7 8 7 6 7 8 8 8 9 9 10
18 19 20 17 19 19 16 14 12 10 11 10 11 11 10 10 10 12 12 11 12 11
15 17 17 15 14 13 12 12 12 11 11 12 12 11 11 11 11 12 14 14 14 14
15 14 11 11 12 12 12 12 12 11 12 12 15 15 15 14 13 12 12 12 12 13
21 16 12 7 5 5 4 4 3 6 10 12 14 15 15 14 13 14 15 14 14 14
15 12 13 14 11 11 10 7 3 3 4 5 5 8 10 12 13 15 17 17 17 17
13 12 12 13 13 13 15 17 15 14 9 8 7 7 8 10 13 15 19 17 18 17
8 7 7 4 2 2 2 10 12 12 9 7 5 6 6 8 4 5 8 9 11 13
7 5 4 3 4 5 6 7 9 9 6 5 5 2 4 3 1 2 2 4 7 8

GFSNIL_850_spd_102.txt.gz
Wind_Speed
13 9 7 6 7 6 6 5 8 6 6 6 8 7 8 6 6 6 4 5 5 2
13 13 10 6 9 6 6 9 7 7 7 6 7 7 8 6 7 9 7 6 7 5
12 12 14 11 10 9 7 9 10 7 6 7 7 7 7 7 9 8 7 7 9 9
14 12 11 11 11 9 9 8 8 8 7 4 7 8 8 8 9 8 7 7 7 7
15 13 12 12 13 11 10 10 9 8 7 5 6 6 7 6 7 8 7 7 7 8
19 17 15 14 14 15 13 11 9 9 9 9 7 6 6 7 7 7 7 7 8 8
14 17 16 15 15 15 16 15 12 12 10 10 11 10 9 8 7 7 8 8 8 9
18 18 16 13 14 14 14 16 15 12 10 10 9 9 12 11 10 8 8 9 9 9
21 16 12 14 13 14 13 13 15 13 12 11 11 16 14 14 11 9 8 8 7 8
16 19 19 15 14 12 11 11 12 10 11 14 15 14 15 15 13 12 9 9 8 7
15 16 21 21 16 11 9 8 6 7 7 8 8 8 11 12 15 15 14 14 14 13
15 18 15 11 15 16 13 12 14 14 13 9 8 6 5 6 8 11 12 11 11 8
17 15 15 16 18 19 15 19 18 17 15 12 8 9 6 4 3 6 5 5 5 5
14 13 12 11 11 15 15 12 10 12 11 9 8 7 6 6 5 4 3 3 3 5

GFSNIL_850_spd_105.txt.gz
Wind_Speed
10 7 7 8 11 7 6 6 10 7 6 5 7 7 7 6 6 6 4 5 6 2
13 13 12 14 2 11 6 7 6 6 6 6 6 7 8 5 8 6 6 6 7 7
11 10 9 8 11 5 3 12 12 7 6 6 7 7 7 7 9 9 8 7 8 10
13 11 9 8 9 4 5 3 4 8 8 7 9 8 10 11 5 5 6 8 7 7
14 12 11 9 9 8 7 8 8 5 6 6 5 8 9 5 7 7 8 8 7 7
15 15 13 12 11 11 11 9 7 8 8 8 8 9 7 9 8 8 7 7 7 7
15 17 16 15 13 12 14 12 12 10 9 8 10 10 9 8 8 9 8 8 9 8
18 18 17 16 15 14 15 14 14 12 12 11 10 12 13 11 11 12 9 10 10 10
23 23 18 15 15 16 15 14 14 13 13 12 12 17 18 16 12 12 10 9 9 9
23 22 20 15 14 13 13 15 15 13 13 16 17 14 18 18 17 13 12 10 13 10
18 19 21 21 18 15 13 11 12 12 15 14 13 13 15 17 16 16 15 14 13 13
12 12 12 19 21 18 15 13 9 11 11 11 11 10 8 8 10 14 16 16 15 13
14 13 19 12 16 18 18 16 13 19 18 14 13 10 8 8 3 4 4 7 8 9
13 16 15 15 14 17 19 18 19 19 12 9 11 10 9 8 9 10 5 3 3 6

GFSNIL_850_spd_108.txt.gz
Wind_Speed
10 7 3 2 9 10 10 7 11 7 5 6 6 7 6 6 1 3 4 8 8 3
12 14 12 8 4 4 22 13 13 6 7 3 6 5 5 4 8 8 6 5 6 10
14 15 9 5 7 3 12 4 10 11 6 6 6 5 5 7 8 8 9 5 9 11
11 8 11 10 5 3 6 3 3 8 10 9 8 7 10 10 6 6 4 11 8 8
14 15 11 9 6 5 6 6 6 5 9 8 8 9 8 7 7 8 7 8 8 9
18 16 15 13 8 12 10 9 6 7 8 8 7 7 10 6 9 5 6 6 8 8
21 17 15 15 13 11 13 14 12 12 9 6 6 7 9 9 7 11 6 6 8 10
18 19 18 17 17 16 14 13 11 12 10 11 10 14 14 12 11 9 8 10 8 9
22 29 20 22 21 21 18 14 12 12 10 13 14 15 14 14 13 11 9 11 11 10
17 24 21 22 18 18 18 20 15 14 17 18 15 14 14 16 16 17 16 12 12 11
16 16 18 18 15 15 15 16 16 18 15 13 13 14 16 16 15 17 17 15 12 15
10 13 18 20 19 18 16 17 17 15 14 10 8 8 10 7 7 13 17 17 15 16
11 10 7 8 10 16 16 16 18 14 14 9 11 11 9 9 11 5 5 3 7 9
12 12 11 13 10 13 15 16 15 14 14 14 16 12 11 10 10 10 6 4 8 3

GFSNIL_850_spd_111.txt.gz
Wind_Speed
15 11 8 11 7 6 12 13 14 8 10 9 8 8 6 6 7 6 7 7 4 5
13 10 11 7 4 5 16 17 11 11 8 4 5 7 8 4 4 5 4 5 7 5
18 15 14 10 7 9 6 11 13 10 8 8 8 3 3 7 5 5 2 5 5 5
16 20 17 13 8 6 9 7 10 13 13 12 10 8 9 7 8 4 2 3 10 7
15 15 13 12 11 9 8 8 7 12 14 12 13 12 7 6 8 7 2 1 5 5
21 18 15 15 11 12 11 8 8 11 11 12 12 9 4 2 8 6 4 4 5 4
22 21 18 16 15 13 15 12 10 12 10 10 10 9 7 7 4 10 7 5 5 7
29 25 25 22 18 19 18 14 14 11 12 12 11 10 9 10 8 7 11 11 8 9
28 28 21 25 20 22 17 18 17 13 12 15 14 13 10 11 14 11 10 11 8 14
26 21 24 25 25 23 23 24 15 17 17 14 11 13 13 11 13 14 14 14 10 14
24 18 17 21 21 18 16 18 20 22 15 12 12 12 13 14 15 17 18 18 17 15
18 14 14 13 16 16 16 15 18 18 18 21 16 11 11 8 10 11 12 14 14 13
14 12 12 14 15 16 16 15 15 15 13 16 16 11 8 6 10 10 8 6 8 9
14 13 10 9 9 9 12 13 14 15 15 12 11 10 9 9 9 9 6 5 3 2

GFSNIL_850_spd_114.txt.gz
Wind_Speed
18 15 12 15 14 15 15 12 13 15 11 7 8 10 9 8 7 6 5 4 1 1
19 16 15 15 11 12 9 11 12 16 9 8 9 8 8 7 10 7 6 5 6 3
22 18 16 14 11 9 7 12 15 14 12 11 8 3 7 9 9 7 6 7 6 4
22 21 19 15 11 8 8 9 11 15 14 14 12 9 10 7 10 8 7 4 7 8
22 22 20 19 15 12 9 10 8 15 15 14 11 12 11 10 11 12 8 7 4 3
23 22 22 19 17 14 12 12 10 11 14 14 13 14 12 10 9 11 11 7 5 3
25 23 18 17 15 13 10 10 11 9 10 11 15 15 13 11 6 10 9 8 10 9
28 24 24 21 22 20 19 15 10 10 13 13 13 14 15 13 9 8 10 13 11 11
28 27 24 27 22 24 24 23 19 16 15 16 15 16 12 13 13 12 9 12 14 13
29 29 28 25 25 20 26 22 22 21 17 15 17 17 14 13 12 13 13 11 11 11
27 28 30 25 23 25 25 25 26 23 22 17 20 16 14 14 15 14 14 15 15 14
26 32 25 21 22 22 23 21 20 20 18 21 22 17 16 11 12 12 12 13 14 13
23 26 18 16 14 12 14 15 14 15 16 18 20 21 16 14 10 12 10 9 10 12
19 17 15 14 14 13 14 14 14 15 15 13 14 16 14 12 12 13 12 8 6 6

GFSNIL_850_spd_117.txt.gz
Wind_Speed
21 19 16 15 15 14 16 13 15 19 14 11 11 9 10 8 10 9 9 9 6 5
21 20 19 12 12 12 13 13 16 15 16 13 11 10 10 12 11 11 9 9 10 8
24 21 18 17 14 11 10 13 16 14 14 13 11 10 11 11 9 10 9 10 7 6
26 23 20 18 15 13 11 13 13 14 14 14 14 11 8 8 10 11 10 11 11 9
26 25 23 21 18 14 9 9 11 13 14 16 15 15 11 9 10 11 11 9 8 8
26 25 24 22 19 15 12 11 11 10 16 17 16 15 11 11 11 12 13 12 8 5
25 25 23 19 18 16 15 12 12 11 12 14 16 16 13 13 12 9 12 15 15 12
25 23 22 20 18 18 19 16 13 13 13 14 13 12 13 15 16 12 14 18 15 14
26 26 24 23 23 23 23 19 20 19 16 13 14 13 12 12 14 15 16 16 16 16
29 28 26 26 24 29 26 21 20 24 21 18 15 14 12 14 14 14 15 15 13 13
33 33 27 26 27 23 25 25 25 24 24 20 17 17 11 12 13 14 13 15 15 16
28 29 29 33 30 28 20 23 24 22 26 25 20 19 18 9 7 8 11 12 13 15
26 24 26 30 30 25 20 20 19 18 19 18 18 18 17 17 16 14 14 14 7 12
21 19 20 15 13 12 12 12 13 13 13 13 12 10 9 10 10 12 10 11 13 13

GFSNIL_850_spd_120.txt.gz
Wind_Speed
19 17 15 14 13 14 14 14 14 16 15 12 10 12 12 10 9 11 10 10 8 7
21 17 18 16 14 17 17 16 16 16 16 17 13 13 14 14 12 11 11 10 10 11
27 22 17 17 17 15 12 13 13 16 14 17 15 14 15 13 13 11 11 10 10 8
27 25 22 20 16 15 12 12 13 15 18 16 17 15 13 13 13 11 11 10 10 11
23 25 25 21 17 16 14 12 12 17 17 17 18 17 16 13 11 10 12 10 10 8
22 23 25 23 20 18 16 14 12 11 12 17 17 17 17 15 13 12 13 13 12 9
25 23 23 22 22 22 20 18 16 14 13 13 17 18 19 17 15 14 15 15 14 13
29 26 23 22 22 21 22 21 19 17 15 13 15 17 19 17 14 16 15 17 14 13
34 30 27 23 22 21 21 21 20 19 17 17 17 17 14 14 14 17 16 14 13 14
34 34 28 25 25 25 24 23 23 21 24 20 19 17 13 12 14 13 16 16 14 14
32 31 28 28 26 26 26 26 25 22 21 22 22 21 13 11 13 14 14 15 17 17
30 27 22 25 27 27 24 21 18 22 19 22 26 28 21 15 9 6 9 13 14 16
27 14 14 20 26 30 31 25 20 22 19 22 22 29 30 20 17 17 11 11 12 13
13 10 10 14 16 17 20 25 22 18 18 22 21 17 21 21 20 16 13 12 13 15

GFSNIL_850_spd_123.txt.gz
Wind_Speed
20 17 15 16 14 14 13 14 13 13 13 12 11 11 11 12 10 10 10 10 10 8
22 20 17 15 15 13 13 15 16 17 15 15 16 13 12 12 14 12 10 11 11 11
23 22 18 16 17 17 14 15 16 16 16 15 15 16 14 14 14 15 13 12 11 9
25 24 23 22 17 16 17 15 13 14 15 17 15 18 17 13 14 15 14 12 11 10
25 23 24 24 23 20 17 16 15 14 15 17 19 17 18 15 13 13 13 13 14 12
24 25 24 24 24 21 19 19 16 14 13 15 17 18 18 15 15 15 15 15 16 14
26 25 21 21 23 23 21 21 19 17 15 15 15 17 17 17 17 17 17 16 16 16
30 28 28 25 22 22 24 24 22 21 19 17 15 14 16 17 18 20 18 17 12 13
33 34 33 31 27 24 25 26 25 24 21 19 18 15 14 16 17 18 19 18 17 18
27 27 32 34 32 28 27 25 24 22 22 21 20 18 15 15 17 17 16 17 18 17
22 27 24 27 31 31 27 28 25 24 22 24 23 25 19 19 18 15 15 15 15 17
23 26 29 32 35 34 29 26 27 23 21 22 22 24 24 21 18 12 10 13 14 13
15 12 22 23 21 24 21 26 25 20 14 13 16 16 22 34 29 22 16 10 7 9
8 9 10 9 8 12 19 30 26 20 16 11 13 9 19 20 24 19 22 19 21 23

GFSNIL_850_spd_126.txt.gz
Wind_Speed
17 12 11 12 11 11 9 9 10 10 10 9 10 9 9 7 7 8 7 8 10 7
20 17 13 12 13 11 12 10 12 12 12 12 11 12 10 8 11 10 9 8 9 10
20 19 17 16 14 12 13 13 11 13 13 12 13 12 14 10 11 11 11 10 11 10
18 18 17 17 15 13 13 14 15 13 12 13 13 13 13 14 13 12 12 11 11 11
19 19 18 19 18 17 18 16 14 13 13 14 15 14 16 14 12 12 12 11 12 12
19 19 19 18 18 19 20 19 16 17 16 14 14 16 13 16 15 13 13 13 12 12
18 18 17 17 17 17 18 21 20 19 19 17 15 14 15 15 15 14 14 14 14 13
17 19 18 17 17 18 18 19 21 21 21 20 17 14 14 14 16 16 15 15 15 13
23 24 25 25 25 22 23 21 20 19 19 19 17 19 17 16 15 14 15 14 14 14
28 26 23 25 24 26 28 25 22 22 19 19 19 20 18 17 16 15 13 15 16 15
19 19 22 22 26 24 24 28 34 26 22 21 20 21 21 21 22 19 16 15 17 14
11 12 16 21 22 23 24 27 27 31 30 24 23 21 21 22 27 26 20 18 17 15
9 10 12 15 18 19 22 22 23 24 30 28 25 20 20 21 20 21 18 11 9 8
7 8 11 11 10 10 10 12 15 19 24 24 23 15 11 14 18 24 32 24 18 15